| time (UTC) | temp F | wind direction | speed MPH | gust MPH | rain 1hr in | rain 24hr in | rain mn in | humidity % | barometer mb |
| 20260503004017 | 60 | 117 | 5.0 | 8.0 | 0.00 | 0.00 | 0.00 | 1 | 1016.7 |
| 20260503003515 | 60 | 98 | 6.0 | 8.0 | 0.00 | 0.00 | 0.00 | 1 | 1016.8 |
| 20260503003050 | 60 | 110 | 5.0 | 9.0 | 0.00 | 0.00 | 0.00 | 1 | 1016.8 |
| 20260503002518 | 60 | 94 | 7.0 | 9.0 | 0.00 | 0.00 | 0.00 | 1 | 1016.8 |
| 20260503002018 | 60 | 105 | 6.0 | 8.0 | 0.00 | 0.00 | 0.00 | 1 | 1016.7 |
| 20260503001543 | 60 | 105 | 4.0 | 8.0 | 0.00 | 0.00 | 0.00 | 1 | 1016.8 |
| 20260503001017 | 60 | 97 | 5.0 | 7.0 | 0.00 | 0.00 | 0.00 | 1 | 1017.1 |
| 20260503000514 | 61 | 97 | 4.0 | 7.0 | 0.00 | 0.00 | 0.00 | 1 | 1017.2 |
| 20260503000058 | 62 | 246 | 0.0 | 5.0 | 0.00 | 0.00 | 0.00 | 1 | 1017.2 |
| 20260502235517 | 62 | 246 | 1.0 | 9.0 | 0.00 | 0.00 | 0.00 | 1 | 1017.1 |
| 20260502235010 | 62 | 234 | 4.0 | 9.0 | 0.00 | 0.00 | 0.00 | 1 | 1017.2 |
| 20260502234554 | 62 | 225 | 4.0 | 8.0 | 0.00 | 0.00 | 0.00 | 1 | 1017.1 |
| 20260502234017 | 62 | 244 | 2.0 | 7.0 | 0.00 | 0.00 | 0.00 | 1 | 1017.2 |
| 20260502233516 | 62 | 130 | 2.0 | 8.0 | 0.00 | 0.00 | 0.00 | 1 | 1017.1 |
| 20260502233050 | 62 | 146 | 4.0 | 8.0 | 0.00 | 0.00 | 0.00 | 1 | 1017.2 |
| 20260502232514 | 63 | 228 | 3.0 | 9.0 | 0.00 | 0.00 | 0.00 | 1 | 1017.2 |
| 20260502232016 | 63 | 51 | 0.0 | 12.0 | 0.00 | 0.00 | 0.00 | 1 | 1017.1 |
| 20260502231551 | 62 | 313 | 3.0 | 12.0 | 0.00 | 0.00 | 0.00 | 1 | 1017.1 |
| 20260502231016 | 63 | 29 | 4.0 | 9.0 | 0.00 | 0.00 | 0.00 | 1 | 1017.4 |
| 20260502230516 | 63 | 311 | 1.0 | 13.0 | 0.00 | 0.00 | 0.00 | 1 | 1017.4 |
| 20260502230450 | 64 | 330 | 8.0 | 13.0 | 0.00 | 0.00 | 0.00 | 1 | 1017.5 |
| 20260502225512 | 64 | 165 | 2.0 | 11.0 | 0.00 | 0.00 | 0.00 | 1 | 1017.5 |
| 20260502225016 | 64 | 199 | 1.0 | 11.0 | 0.00 | 0.00 | 0.00 | 1 | 1017.6 |
| 20260502224557 | 63 | 279 | 4.0 | 8.0 | 0.00 | 0.00 | 0.00 | 1 | 1017.5 |
| 20260502224016 | 62 | 153 | 1.0 | 7.0 | 0.00 | 0.00 | 0.00 | 1 | 1017.5 |
| 20260502223515 | 63 | 196 | 1.0 | 6.0 | 0.00 | 0.00 | 0.00 | 1 | 1017.6 |
| 20260502223052 | 62 | 225 | 3.0 | 13.0 | 0.00 | 0.00 | 0.00 | 1 | 1017.8 |
| 20260502222519 | 62 | 275 | 5.0 | 13.0 | 0.00 | 0.00 | 0.00 | 1 | 1017.8 |
| 20260502222021 | 62 | 257 | 6.0 | 12.0 | 0.00 | 0.00 | 0.00 | 1 | 1018.0 |
| 20260502221549 | 62 | 232 | 8.0 | 15.0 | 0.00 | 0.00 | 0.00 | 1 | 1018.0 |
| 20260502221015 | 62 | 291 | 11.0 | 15.0 | 0.00 | 0.00 | 0.00 | 1 | 1018.1 |
| 20260502220517 | 62 | 322 | 4.0 | 13.0 | 0.00 | 0.00 | 0.00 | 1 | 1018.1 |
| 20260502220150 | 62 | 355 | 7.0 | 15.0 | 0.00 | 0.00 | 0.00 | 1 | 1018.1 |
| 20260502215515 | 62 | 355 | 2.0 | 8.0 | 0.00 | 0.00 | 0.00 | 1 | 1018.4 |
| 20260502215015 | 61 | 109 | 3.0 | 7.0 | 0.00 | 0.00 | 0.00 | 1 | 1018.6 |
| 20260502214552 | 61 | 246 | 1.0 | 12.0 | 0.00 | 0.00 | 0.00 | 1 | 1018.5 |
| 20260502214021 | 61 | 355 | 7.0 | 12.0 | 0.00 | 0.00 | 0.00 | 1 | 1018.6 |
| 20260502213518 | 61 | 16 | 8.0 | 12.0 | 0.00 | 0.00 | 0.00 | 1 | 1018.7 |
| 20260502213107 | 61 | 304 | 3.0 | 13.0 | 0.00 | 0.00 | 0.00 | 1 | 1018.7 |
| 20260502212511 | 60 | 329 | 10.0 | 13.0 | 0.00 | 0.00 | 0.00 | 1 | 1018.7 |
| 20260502212046 | 61 | 342 | 4.0 | 11.0 | 0.00 | 0.00 | 0.00 | 1 | 1018.9 |
| 20260502211557 | 61 | 309 | 3.0 | 12.0 | 0.00 | 0.00 | 0.00 | 1 | 1019.0 |
| 20260502211015 | 61 | 266 | 7.0 | 12.0 | 0.00 | 0.00 | 0.00 | 1 | 1019.1 |
| 20260502210534 | 60 | 257 | 9.0 | 12.0 | 0.00 | 0.00 | 0.00 | 1 | 1019.0 |
| 20260502210057 | 60 | 270 | 1.0 | 8.0 | 0.00 | 0.00 | 0.00 | 1 | 1019.1 |
| 20260502205515 | 61 | 269 | 3.0 | 10.0 | 0.00 | 0.00 | 0.00 | 1 | 1019.2 |
| 20260502205016 | 61 | 285 | 4.0 | 10.0 | 0.00 | 0.00 | 0.00 | 1 | 1019.3 |
| 20260502204601 | 61 | 298 | 4.0 | 10.0 | 0.00 | 0.00 | 0.00 | 1 | 1019.2 |
| 20260502204007 | 60 | 10 | 4.0 | 9.0 | 0.00 | 0.00 | 0.00 | 1 | 1019.0 |
| 20260502203521 | 59 | 32 | 2.0 | 9.0 | 0.00 | 0.00 | 0.00 | 1 | 1019.1 |
| 20260502203101 | 59 | 291 | 3.0 | 9.0 | 0.00 | 0.00 | 0.00 | 1 | 1019.3 |
| 20260502202517 | 59 | 286 | 4.0 | 11.0 | 0.00 | 0.00 | 0.00 | 1 | 1019.3 |
| 20260502202015 | 59 | 344 | 7.0 | 11.0 | 0.00 | 0.00 | 0.00 | 1 | 1019.5 |
| 20260502201545 | 60 | 274 | 5.0 | 10.0 | 0.00 | 0.00 | 0.00 | 1 | 1019.5 |
| 20260502201014 | 60 | 303 | 4.0 | 12.0 | 0.00 | 0.00 | 0.00 | 1 | 1019.5 |
| 20260502200515 | 60 | 316 | 3.0 | 17.0 | 0.00 | 0.00 | 0.00 | 1 | 1019.6 |
| 20260502200048 | 60 | 286 | 5.0 | 13.0 | 0.00 | 0.00 | 0.00 | 1 | 1019.6 |
| 20260502195514 | 59 | 296 | 5.0 | 11.0 | 0.00 | 0.00 | 0.00 | 1 | 1019.5 |
| 20260502195015 | 59 | 318 | 3.0 | 13.0 | 0.00 | 0.00 | 0.00 | 1 | 1019.5 |
| 20260502194553 | 59 | 355 | 8.0 | 14.0 | 0.00 | 0.00 | 0.00 | 1 | 1019.6 |
| 20260502194028 | 59 | 292 | 10.0 | 14.0 | 0.00 | 0.00 | 0.00 | 1 | 1019.6 |
| 20260502193515 | 59 | 17 | 2.0 | 14.0 | 0.00 | 0.00 | 0.00 | 1 | 1019.7 |
| 20260502193039 | 59 | 54 | 6.0 | 15.0 | 0.00 | 0.00 | 0.00 | 1 | 1019.6 |
| 20260502192519 | 59 | 5 | 8.0 | 13.0 | 0.00 | 0.00 | 0.00 | 1 | 1019.7 |
| 20260502192016 | 58 | 311 | 8.0 | 16.0 | 0.00 | 0.00 | 0.00 | 1 | 1019.8 |
| 20260502191542 | 58 | 277 | 10.0 | 16.0 | 0.00 | 0.00 | 0.00 | 1 | 1019.7 |
| 20260502191013 | 58 | 301 | 11.0 | 15.0 | 0.00 | 0.00 | 0.00 | 1 | 1019.9 |
| 20260502190515 | 58 | 324 | 11.0 | 15.0 | 0.00 | 0.00 | 0.00 | 1 | 1019.7 |
| 20260502190026 | 57 | 345 | 11.0 | 16.0 | 0.00 | 0.00 | 0.00 | 1 | 1019.9 |
| 20260502185518 | 57 | 346 | 11.0 | 16.0 | 0.00 | 0.00 | 0.00 | 1 | 1020.0 |
| 20260502185017 | 58 | 5 | 9.0 | 17.0 | 0.00 | 0.00 | 0.00 | 1 | 1020.0 |
| 20260502184606 | 57 | 350 | 13.0 | 17.0 | 0.00 | 0.00 | 0.00 | 1 | 1019.8 |
| 20260502184022 | 57 | 332 | 13.0 | 17.0 | 0.00 | 0.00 | 0.00 | 1 | 1019.9 |
| 20260502183519 | 57 | 331 | 13.0 | 17.0 | 0.00 | 0.00 | 0.00 | 1 | 1019.8 |
| 20260502183108 | 57 | 350 | 11.0 | 18.0 | 0.00 | 0.00 | 0.00 | 1 | 1019.9 |
| 20260502182524 | 58 | 341 | 12.0 | 16.0 | 0.00 | 0.00 | 0.00 | 1 | 1019.9 |
| 20260502182024 | 58 | 332 | 11.0 | 17.0 | 0.00 | 0.00 | 0.00 | 1 | 1020.0 |
| 20260502181608 | 57 | 292 | 11.0 | 17.0 | 0.00 | 0.00 | 0.00 | 1 | 1020.1 |
| 20260502181019 | 58 | 325 | 12.0 | 18.0 | 0.00 | 0.00 | 0.00 | 1 | 1020.0 |
| 20260502180522 | 57 | 338 | 13.0 | 18.0 | 0.00 | 0.00 | 0.00 | 1 | 1020.1 |
| 20260502170518 | 58 | 331 | 14.0 | 22.0 | 0.00 | 0.00 | 0.00 | 1 | 1020.2 |
| 20260502164017 | 57 | 327 | 18.0 | 22.0 | 0.00 | 0.00 | 0.00 | 1 | 1019.9 |
| 20260502163516 | 57 | 333 | 17.0 | 23.0 | 0.00 | 0.00 | 0.00 | 1 | 1019.9 |
| 20260502163106 | 57 | 331 | 16.0 | 23.0 | 0.00 | 0.00 | 0.00 | 1 | 1019.9 |
| 20260502162519 | 57 | 344 | 17.0 | 22.0 | 0.00 | 0.00 | 0.00 | 1 | 1019.9 |
| 20260502162020 | 57 | 317 | 16.0 | 24.0 | 0.00 | 0.00 | 0.00 | 1 | 1019.9 |
| 20260502161551 | 56 | 335 | 18.0 | 24.0 | 0.00 | 0.00 | 0.00 | 1 | 1019.9 |
| 20260502161027 | 56 | 339 | 17.0 | 24.0 | 0.00 | 0.00 | 0.00 | 1 | 1019.7 |
| 20260502160518 | 57 | 320 | 19.0 | 24.0 | 0.00 | 0.00 | 0.00 | 1 | 1019.5 |
| 20260502152017 | 57 | 348 | 20.0 | 27.0 | 0.00 | 0.00 | 0.00 | 1 | 1019.5 |
| 20260502151539 | 56 | 338 | 19.0 | 27.0 | 0.00 | 0.00 | 0.00 | 1 | 1019.5 |
| 20260502151015 | 56 | 345 | 18.0 | 27.0 | 0.00 | 0.00 | 0.00 | 1 | 1019.8 |
| 20260502150517 | 56 | 355 | 20.0 | 27.0 | 0.00 | 0.00 | 0.00 | 1 | 1019.5 |
| 20260502150311 | 56 | 336 | 17.0 | 25.0 | 0.00 | 0.00 | 0.00 | 1 | 1019.6 |
| 20260502130519 | 52 | 59 | 10.0 | 17.0 | 0.00 | 0.00 | 0.00 | 1 | 1019.5 |
| 20260502123516 | 51 | 37 | 13.0 | 17.0 | 0.00 | 0.00 | 0.00 | 1 | 1018.9 |
| 20260502123045 | 51 | 31 | 12.0 | 20.0 | 0.00 | 0.00 | 0.00 | 1 | 1018.9 |
| 20260502122515 | 51 | 46 | 14.0 | 22.0 | 0.00 | 0.00 | 0.00 | 1 | 1018.7 |
| 20260502122016 | 51 | 39 | 16.0 | 22.0 | 0.00 | 0.00 | 0.00 | 1 | 1018.6 |
| 20260502121551 | 50 | 32 | 17.0 | 21.0 | 0.00 | 0.00 | 0.00 | 1 | 1018.8 |
| 20260502121017 | 50 | 31 | 15.0 | 20.0 | 0.00 | 0.00 | 0.00 | 1 | 1018.6 |
| 20260502120517 | 50 | 32 | 15.0 | 24.0 | 0.00 | 0.00 | 0.00 | 1 | 1018.6 |
| 20260502115519 | 50 | 43 | 17.0 | 25.0 | 0.00 | 0.00 | 0.00 | 1 | 1018.4 |
| 20260502115017 | 50 | 36 | 18.0 | 25.0 | 0.00 | 0.00 | 0.00 | 1 | 1018.1 |
| 20260502114554 | 50 | 51 | 17.0 | 25.0 | 0.00 | 0.00 | 0.00 | 1 | 1018.4 |
| 20260502114017 | 50 | 44 | 19.0 | 25.0 | 0.00 | 0.00 | 0.00 | 1 | 1018.3 |
| 20260502113517 | 50 | 54 | 19.0 | 25.0 | 0.00 | 0.00 | 0.00 | 1 | 1018.2 |
| 20260502113056 | 50 | 50 | 19.0 | 27.0 | 0.00 | 0.00 | 0.00 | 1 | 1018.1 |
| 20260502112514 | 51 | 64 | 18.0 | 29.0 | 0.00 | 0.00 | 0.00 | 1 | 1018.1 |
| 20260502112016 | 51 | 56 | 20.0 | 29.0 | 0.00 | 0.00 | 0.00 | 1 | 1018.0 |
| 20260502111554 | 51 | 55 | 21.0 | 29.0 | 0.00 | 0.00 | 0.00 | 1 | 1017.8 |
| 20260502111056 | 51 | 47 | 22.0 | 29.0 | 0.00 | 0.00 | 0.00 | 1 | 1017.9 |
| 20260502110515 | 51 | 45 | 22.0 | 28.0 | 0.00 | 0.00 | 0.00 | 1 | 1017.6 |
| 20260502110105 | 51 | 46 | 20.0 | 28.0 | 0.00 | 0.00 | 0.00 | 1 | 1017.7 |
| 20260502105529 | 51 | 40 | 21.0 | 28.0 | 0.00 | 0.00 | 0.00 | 1 | 1017.4 |
| 20260502105015 | 51 | 48 | 20.0 | 28.0 | 0.00 | 0.00 | 0.00 | 1 | 1017.6 |
| 20260502104553 | 51 | 45 | 20.0 | 28.0 | 0.00 | 0.00 | 0.00 | 1 | 1017.4 |
| 20260502104029 | 51 | 36 | 20.0 | 28.0 | 0.00 | 0.00 | 0.00 | 1 | 1017.4 |
| 20260502103518 | 51 | 55 | 19.0 | 26.0 | 0.00 | 0.00 | 0.00 | 1 | 1017.4 |
| 20260502103057 | 51 | 43 | 18.0 | 24.0 | 0.00 | 0.00 | 0.00 | 1 | 1017.3 |
| 20260502102517 | 51 | 35 | 19.0 | 24.0 | 0.00 | 0.00 | 0.00 | 1 | 1017.4 |
| 20260502102019 | 51 | 58 | 18.0 | 25.0 | 0.00 | 0.00 | 0.00 | 1 | 1017.3 |
| 20260502101819 | 51 | 56 | 16.0 | 25.0 | 0.00 | 0.00 | 0.00 | 1 | 1017.2 |
| 20260502101019 | 52 | 42 | 17.0 | 22.0 | 0.00 | 0.00 | 0.00 | 1 | 1017.1 |
| 20260502100518 | 52 | 57 | 15.0 | 24.0 | 0.00 | 0.00 | 0.00 | 1 | 1017.2 |
| 20260502091014 | 50 | 339 | 5.0 | 11.0 | 0.00 | 0.00 | 0.00 | 1 | 1016.4 |
| 20260502090513 | 50 | 336 | 8.0 | 12.0 | 0.00 | 0.00 | 0.00 | 1 | 1016.3 |
| 20260502071018 | 48 | 327 | 5.0 | 9.0 | 0.00 | 0.00 | 0.00 | 1 | 1016.4 |
| 20260502070527 | 48 | 338 | 4.0 | 10.0 | 0.00 | 0.00 | 0.00 | 1 | 1016.5 |
| 20260502070057 | 49 | 326 | 4.0 | 9.0 | 0.00 | 0.00 | 0.00 | 1 | 1016.4 |
| 20260502065513 | 50 | 338 | 4.0 | 10.0 | 0.00 | 0.00 | 0.00 | 1 | 1016.5 |
| 20260502065016 | 49 | 324 | 7.0 | 10.0 | 0.00 | 0.00 | 0.00 | 1 | 1016.2 |
| 20260502064545 | 48 | 336 | 3.0 | 10.0 | 0.00 | 0.00 | 0.00 | 1 | 1016.2 |
| 20260502064013 | 48 | 338 | 5.0 | 10.0 | 0.00 | 0.00 | 0.00 | 1 | 1016.3 |
| 20260502063517 | 46 | 344 | 6.0 | 10.0 | 0.00 | 0.00 | 0.00 | 1 | 1016.3 |
| 20260502063045 | 45 | 344 | 4.0 | 8.0 | 0.00 | 0.00 | 0.00 | 1 | 1016.2 |
| 20260502062515 | 45 | 355 | 4.0 | 6.0 | 0.00 | 0.00 | 0.00 | 1 | 1016.2 |
| 20260502062017 | 45 | 355 | 5.0 | 8.0 | 0.00 | 0.00 | 0.00 | 1 | 1016.3 |
| 20260502061543 | 45 | 360 | 5.0 | 8.0 | 0.00 | 0.00 | 0.00 | 1 | 1016.2 |
| 20260502061014 | 45 | 360 | 5.0 | 8.0 | 0.00 | 0.00 | 0.00 | 1 | 1016.4 |
| 20260502060513 | 45 | 346 | 4.0 | 9.0 | 0.00 | 0.00 | 0.00 | 1 | 1016.3 |
| 20260502060040 | 46 | 360 | 7.0 | 10.0 | 0.00 | 0.00 | 0.00 | 1 | 1016.3 |
| 20260502055514 | 46 | 344 | 8.0 | 10.0 | 0.00 | 0.00 | 0.00 | 1 | 1016.3 |
| 20260502055014 | 47 | 325 | 7.0 | 11.0 | 0.00 | 0.00 | 0.00 | 1 | 1016.2 |
| 20260502054540 | 46 | 336 | 9.0 | 11.0 | 0.00 | 0.00 | 0.00 | 1 | 1016.3 |
| 20260502054013 | 45 | 317 | 9.0 | 11.0 | 0.00 | 0.00 | 0.00 | 1 | 1016.3 |
| 20260502053515 | 46 | 314 | 9.0 | 12.0 | 0.00 | 0.00 | 0.00 | 1 | 1016.5 |
| 20260502053038 | 47 | 336 | 10.0 | 12.0 | 0.00 | 0.00 | 0.00 | 1 | 1016.4 |
| 20260502052517 | 48 | 337 | 10.0 | 11.0 | 0.00 | 0.00 | 0.00 | 1 | 1016.3 |
| 20260502052028 | 48 | 333 | 10.0 | 11.0 | 0.00 | 0.00 | 0.00 | 1 | 1016.3 |
| 20260502051546 | 48 | 335 | 10.0 | 11.0 | 0.00 | 0.00 | 0.00 | 1 | 1016.4 |
| 20260502051007 | 49 | 327 | 9.0 | 12.0 | 0.00 | 0.00 | 0.00 | 1 | 1016.4 |
| 20260502050541 | 50 | 342 | 10.0 | 13.0 | 0.00 | 0.00 | 0.00 | 1 | 1016.3 |
| 20260502050053 | 50 | 344 | 11.0 | 13.0 | 0.00 | 0.00 | 0.00 | 1 | 1016.3 |
| 20260502045518 | 50 | 348 | 10.0 | 12.0 | 0.00 | 0.00 | 0.00 | 1 | 1016.2 |
| 20260502045019 | 50 | 340 | 9.0 | 10.0 | 0.00 | 0.00 | 0.00 | 1 | 1016.2 |
| 20260502044552 | 51 | 346 | 8.0 | 9.0 | 0.00 | 0.00 | 0.00 | 1 | 1016.3 |
| 20260502044016 | 54 | 319 | 7.0 | 10.0 | 0.00 | 0.00 | 0.00 | 1 | 1016.1 |
| 20260502043518 | 53 | 295 | 6.0 | 10.0 | 0.00 | 0.00 | 0.00 | 1 | 1016.1 |
| 20260502043059 | 53 | 307 | 8.0 | 10.0 | 0.00 | 0.00 | 0.00 | 1 | 1016.2 |
| 20260502042519 | 53 | 313 | 7.0 | 9.0 | 0.00 | 0.00 | 0.00 | 1 | 1016.1 |
| 20260502042021 | 53 | 308 | 8.0 | 10.0 | 0.00 | 0.00 | 0.00 | 1 | 1016.1 |
| 20260502041550 | 52 | 308 | 7.0 | 10.0 | 0.00 | 0.00 | 0.00 | 1 | 1016.1 |
| 20260502041016 | 51 | 304 | 6.0 | 9.0 | 0.00 | 0.00 | 0.00 | 1 | 1016.2 |
| 20260502040558 | 51 | 295 | 6.0 | 9.0 | 0.00 | 0.00 | 0.00 | 1 | 1016.2 |
| 20260502040048 | 51 | 288 | 7.0 | 9.0 | 0.00 | 0.00 | 0.00 | 1 | 1016.3 |
| 20260502035514 | 52 | 315 | 2.0 | 4.0 | 0.00 | 0.00 | 0.00 | 1 | 1016.1 |
| 20260502035013 | 53 | 315 | 0.0 | 4.0 | 0.00 | 0.00 | 0.00 | 1 | 1015.9 |
| 20260502034547 | 53 | 345 | 2.0 | 5.0 | 0.00 | 0.00 | 0.00 | 1 | 1016.0 |
| 20260502034019 | 54 | 9 | 4.0 | 5.0 | 0.00 | 0.00 | 0.00 | 1 | 1015.9 |
| 20260502033515 | 54 | 277 | 4.0 | 9.0 | 0.00 | 0.00 | 0.00 | 1 | 1015.9 |
| 20260502033054 | 55 | 296 | 5.0 | 9.0 | 0.00 | 0.00 | 0.00 | 1 | 1015.8 |
| 20260502032516 | 52 | 277 | 5.0 | 7.0 | 0.00 | 0.00 | 0.00 | 1 | 1015.8 |
| 20260502032015 | 53 | 282 | 5.0 | 9.0 | 0.00 | 0.00 | 0.00 | 1 | 1015.6 |
| 20260502031551 | 53 | 250 | 7.0 | 9.0 | 0.00 | 0.00 | 0.00 | 1 | 1015.7 |
| 20260502031016 | 54 | 292 | 4.0 | 7.0 | 0.00 | 0.00 | 0.00 | 1 | 1015.6 |
| 20260502030514 | 55 | 283 | 4.0 | 7.0 | 0.00 | 0.00 | 0.00 | 1 | 1015.5 |
| 20260502030053 | 55 | 260 | 4.0 | 7.0 | 0.00 | 0.00 | 0.00 | 1 | 1015.4 |
| 20260502025517 | 56 | 285 | 5.0 | 8.0 | 0.00 | 0.00 | 0.00 | 1 | 1015.2 |
| 20260502025016 | 57 | 279 | 7.0 | 8.0 | 0.00 | 0.00 | 0.00 | 1 | 1015.2 |
| 20260502024543 | 57 | 275 | 6.0 | 9.0 | 0.00 | 0.00 | 0.00 | 1 | 1015.3 |
| 20260502024016 | 58 | 270 | 6.0 | 9.0 | 0.00 | 0.00 | 0.00 | 1 | 1015.3 |
| 20260502023523 | 59 | 275 | 7.0 | 9.0 | 0.00 | 0.00 | 0.00 | 1 | 1015.2 |
| 20260502023109 | 59 | 263 | 6.0 | 8.0 | 0.00 | 0.00 | 0.00 | 1 | 1015.3 |
| 20260502022519 | 60 | 263 | 5.0 | 8.0 | 0.00 | 0.00 | 0.00 | 1 | 1015.2 |
| 20260502022019 | 61 | 263 | 6.0 | 8.0 | 0.00 | 0.00 | 0.00 | 1 | 1015.2 |
| 20260502021619 | 62 | 250 | 6.0 | 9.0 | 0.00 | 0.00 | 0.00 | 1 | 1015.3 |
| 20260502021020 | 63 | 247 | 7.0 | 9.0 | 0.00 | 0.00 | 0.00 | 1 | 1015.3 |
| 20260502020519 | 64 | 263 | 7.0 | 11.0 | 0.00 | 0.00 | 0.00 | 1 | 1015.2 |
| 20260502020108 | 64 | 252 | 8.0 | 11.0 | 0.00 | 0.00 | 0.00 | 1 | 1015.2 |
| 20260502015522 | 65 | 254 | 9.0 | 11.0 | 0.00 | 0.00 | 0.00 | 1 | 1015.2 |
| 20260502015021 | 65 | 247 | 9.0 | 11.0 | 0.00 | 0.00 | 0.00 | 1 | 1015.1 |
| 20260502014616 | 66 | 250 | 8.0 | 14.0 | 0.00 | 0.00 | 0.00 | 1 | 1015.0 |
| 20260502014019 | 67 | 246 | 10.0 | 15.0 | 0.00 | 0.00 | 0.00 | 1 | 1015.0 |
| 20260502013524 | 67 | 238 | 12.0 | 17.0 | 0.00 | 0.00 | 0.00 | 1 | 1015.0 |
| 20260502013108 | 68 | 237 | 13.0 | 18.0 | 0.00 | 0.00 | 0.00 | 1 | 1014.9 |
| 20260502012519 | 68 | 218 | 13.0 | 19.0 | 0.00 | 0.00 | 0.00 | 1 | 1014.8 |
| 20260502012027 | 69 | 239 | 15.0 | 19.0 | 0.00 | 0.00 | 0.00 | 1 | 1014.9 |
| 20260502011609 | 69 | 226 | 13.0 | 19.0 | 0.00 | 0.00 | 0.00 | 1 | 1015.0 |
| 20260502011016 | 70 | 209 | 14.0 | 19.0 | 0.00 | 0.00 | 0.00 | 1 | 1014.9 |
| 20260502010529 | 70 | 241 | 13.0 | 17.0 | 0.00 | 0.00 | 0.00 | 1 | 1015.1 |
| 20260502010100 | 70 | 239 | 8.0 | 12.0 | 0.00 | 0.00 | 0.00 | 1 | 1015.1 |
| 20260502005516 | 70 | 239 | 8.0 | 12.0 | 0.00 | 0.00 | 0.00 | 1 | 1015.2 |
| 20260502005028 | 71 | 245 | 5.0 | 9.0 | 0.00 | 0.00 | 0.00 | 1 | 1015.1 |
| 20260502004604 | 70 | 256 | 4.0 | 10.0 | 0.00 | 0.00 | 0.00 | 1 | 1015.2 |